Location: Lafig�re
(44.4503°N, 4.0357°E)
Time: 01:44:32
(UTC+00:00)

Transit 4A - Pass Details

Date: 30 January 2021
Orbit: 866 x 979 km, 66.8° (Epoch: 24 February)

Event Time Altitude Azimuth Distance (km) Brightness Sun altitude
Rises 18:34:20 0° 240° (WSW) 3,670 12.2 -18.6°
Reaches altitude 10° 18:37:08 10° 249° (WSW) 2,726 11.5 -19.1°
Maximum altitude 18:42:55 35° 314° (NW) 1,524 9.4 -20.2°
Drops below altitude 10° 18:48:41 10° 19° (NNE) 2,709 10.1 -21.2°
Enters shadow 18:49:17 - 22° (NNE) 2,901 10.2 -21.3°
Sets 18:51:30 0° 29° (NNE) 3,644 - -21.7°
